Regional Weather Roundup
Issued by NWS

Home | Current Version | Previous Version | Text Only | Print | Product List | Glossary On
Versions: 1 2 3 4 5 6 7 8 9 10 11 12 13 14 15 16 17 18 19 20 21 22 23 24 25 26 27 28 29 30 31 32 33 34 35 36 37 38 39 40 41 42 43 44 45 46 47 48 49 50
000
ASUS43 KLOT 292008
RWRIL

ILLINOIS REGIONAL WEATHER ROUNDUP
NATIONAL WEATHER SERVICE CHICAGO/ROMEOVILLE IL
300 PM CDT SUN MAR 29 2015

NOTE: "FAIR" INDICATES FEW OR NO CLOUDS BELOW 12,000 FEET WITH NO
SIGNIFICANT WEATHER AND/OR OBSTRUCTIONS TO VISIBILITY.

* THESE STATIONS ARE NOT UNDER NWS QUALITY CONTROL. THEY ALSO MAY NOT
  REPORT WEATHER SUCH AS PRECIPITATION OR FOG.

ILZ001-002-007-009-015-016-024-292100-
NORTHWEST ILLINOIS

CITY           SKY/WX    TMP DP  RH WIND       PRES   REMARKS
MOLINE         MOSUNNY   54  39  57 SW18G24   29.81F
STERLING*      CLOUDY    48  37  66 W14G24    29.82F
SAVANNA*       CLOUDY    50  39  66 SW14      29.78F
$$

ILZ003-004-008-010-011-017-018-292100-
NORTH CENTRAL ILLINOIS

CITY           SKY/WX    TMP DP  RH WIND       PRES   REMARKS
ROCKFORD       CLOUDY    41  33  73 SW18G30   29.81F
FREEPORT*      CLOUDY    40  36  84 SW16G22   29.80F
ROCHELLE*      CLOUDY    40  34  79 SW21G31   29.83F
DE KALB*       CLOUDY    38  33  83 SW23G32   29.83F WCI  27
PERU*          PTSUNNY   46  32  58 SW21G30   29.85F
$$

ILZ005-006-012>014-019>023-292100-
NORTHEAST ILLINOIS

CITY           SKY/WX    TMP DP  RH WIND       PRES   REMARKS
CHICAGO-OHARE  CLOUDY    38  29  70 SW25G35   29.82F WCI  27
CHICAGO-MIDWAY CLOUDY    38  30  73 S21G28    29.86F WCI  28
AURORA         CLOUDY    41  31  67 S20G28    29.85F
LANSING*       CLOUDY    36  27  70 S23G29    29.87F WCI  25
JOLIET*        CLOUDY    40  32  74 SW13G21   29.87F
WAUKEGAN       CLOUDY    38  30  73 S28G38    29.78F WCI  26
DUPAGE AIRPORT CLOUDY    38  31  76 S17G30    29.84F WCI  28
KANKAKEE*      LGT RAIN  38  32  78 S20       29.90F WCI  28
WHEELING       CLOUDY    38  28  67 S24G35    29.84F WCI  27
MORRIS*        PTSUNNY   41  32  71 S16G22    29.86F
ROMEOVILLE*    CLOUDY    38  30  73 SW24G35   29.85F WCI  26
NORTHERLY ISL    N/A     37  27  67 S17         N/A  WCI  27
$$

LMZ740>746-292100-
SOUTHERN LAKE MICHIGAN

STATION/POSITION SKY/WX   TEMP    WIND        PRES    VSBY  WAVE
                          AIR SEA DIR/SP/G                  HT/PER
                          (F)     (DEG/KT/KT) (MB)    (MI)  (FT/S)
HARRISON CRIB              36     200/ 36/ 48   N/A
BURNHAM HARBOR             37     170/ 15/ 25   N/A
CALUMET HARBOR             36     180/ 17/ 29 1010.4F
BURNS HARBOR               37     190/ 22/ 28 1011.5F
MICHIGAN CITY              36     170/ 22/ 31   N/A
$$

ILZ025>027-034>036-040-047-049-050-058-095>099-292100-
WEST-CENTRAL ILLINOIS

CITY           SKY/WX    TMP DP  RH WIND       PRES   REMARKS
QUINCY         CLOUDY    56  37  49 SW18G31   29.91F
GALESBURG*     MOSUNNY   53  41  62 SW20G26   29.85F
MACOMB*        PTSUNNY   53  39  59 SW18G28   29.89F
JACKSONVILLE*  DRIZZLE   54  36  51 SW12      29.91F
PITTSFIELD*    CLOUDY    55  38  52 SW14      29.93F
$$

ILZ028>032-037-038-041>044-048-051>054-059>061-292100-
CENTRAL ILLINOIS

CITY           SKY/WX    TMP DP  RH WIND       PRES   REMARKS
PONTIAC        CLOUDY    44  33  63 S25G31    29.90F
BLOOMINGTON    CLOUDY    47  33  58 SW28      29.90F
DECATUR        CLOUDY    48  30  49 S22       29.94F
PEORIA         PTSUNNY   52  33  48 SW22      29.89F
LACON*         PTSUNNY   46  30  54 SW17G28   29.86F
LINCOLN*       CLOUDY    49  34  56 S10G20    29.92S
SPRINGFIELD    LGT RAIN  53  33  46 SW14G22   29.93F
TAYLORVILLE    CLOUDY    48  34  57 S18G24    29.94F
$$

ILZ033-039-045-046-055>057-062-063-292100-
EAST-CENTRAL ILLINOIS

CITY           SKY/WX    TMP DP  RH WIND       PRES   REMARKS
CHAMPAIGN      LGT RAIN  46  32  58 S22       29.92F
DANVILLE*      CLOUDY    44  30  59 S18G29    29.92F
RANTOUL*       LGT RAIN  46  34  62 S18G26    29.92F
MATTOON        LGT RAIN  49  28  44 S18G28    29.94R
PARIS*         CLOUDY    47  32  57 S16G25    29.98R
$$

ILZ079-100>102-292100-
SOUTHWEST ILLINOIS

CITY           SKY/WX    TMP DP  RH WIND       PRES   REMARKS
BELLEVILLE     CLOUDY    58  37  45 VRB7      29.94S
CAHOKIA*       CLOUDY    59  35  40 S9G18     29.95F
SPARTA*        MOSUNNY   55  39  55 S21G26    29.98F
$$

ILZ064>066-069>071-074>076-080>082-084>086-088>090-092>094-292100-
SOUTH-CENTRAL ILLINOIS

CITY           SKY/WX    TMP DP  RH WIND       PRES   REMARKS
CARBONDALE     CLOUDY    55  38  52 S25G38    29.98F
CAIRO*         CLOUDY    55  39  55 S17G25    30.06F
EFFINGHAM*     CLOUDY    55  27  34 S14G20    29.99R
MARION         PTSUNNY   55  36  47 S18G29    30.02F
MT. VERNON     MOSUNNY   57  34  41 S22G30    29.99F
CENTRALIA*     MOSUNNY   55  33  43 S15G29    29.97S
SALEM*         MOSUNNY   56  32  39 S24G33    29.96F
METROPOLIS*    CLOUDY    57  36  45 S12G21    30.06F
$$

ILZ067-068-072-073-078-083-087-091-292100-
SOUTHEAST ILLINOIS

CITY           SKY/WX    TMP DP  RH WIND       PRES   REMARKS
LAWRENCEVILLE  MOSUNNY   53  27  36 S29G37    29.99F
FLORA*         MOSUNNY   56  33  40 S24G31    29.97F
FAIRFIELD*     SUNNY     57  34  42 S21G29    29.99F
HARRISBURG*    MOSUNNY   59  35  40 SW22G29   30.02F
ROBINSON*      PTSUNNY   50  27  40 S23G31    29.97F
CARMI*         SUNNY     58  27  30 S23G31    30.02F
$$

ABBREVIATIONS USED IN REMARKS
   TC - TEMPERATURE IN CELSIUS
  WCI - WIND CHILL INDEX
   HX - HEAT INDEX
  VSB - VISIBILITY
$$




USA.gov is the U.S. government's official web portal to all federal, state and local government web resources and services.